GW1508 Weather Reports


time (UTC)temp
C
wind
direction
speed
KPH
gust
KPH
rain 1hr
cm
rain 24hr
cm
rain mn
cm
humidity
%
barometer
mb
20260503205845 -2 40 0.0 0.0 0.00 0.00 0.00 92 1025.6
20260503204334 -2 40 0.0 0.0 0.00 0.00 0.00 91 1025.7
20260503201340 -1 40 0.0 0.0 0.00 0.00 0.00 88 1025.8
20260503195834 -1 40 0.0 0.0 0.00 0.00 0.00 86 1025.6
20260503192842 1 40 0.0 0.0 0.00 0.00 0.00 84 1025.4
20260503185845 3 40 0.0 0.0 0.00 0.00 0.00 82 1025.3
20260503182849 5 40 0.0 0.0 0.00 0.00 0.00 79 1025.2
20260503181341 6 40 0.0 0.0 0.00 0.00 0.00 76 1025.0
20260503174352 8 52 0.0 1.6 0.00 0.00 0.00 74 1025.0
20260503171347 8 52 0.0 6.4 0.00 0.00 0.00 72 1025.2
20260503081340 13 287 3.2 11.3 0.00 0.00 0.00 53 1027.0
20260503071342 10 203 0.0 6.4 0.00 0.00 0.00 61 1027.3
20260503054348 -6 98 0.0 0.0 0.00 0.00 0.00 93 1027.7
20260503052843 -7 98 0.0 0.0 0.00 0.00 0.00 93 1027.7
20260503045848 -9 98 0.0 0.0 0.00 0.00 0.00 93 1027.7
20260503044340 -10 98 0.0 0.0 0.00 0.00 0.00 92 1028.0
20260503042834 -10 98 0.0 0.0 0.00 0.00 0.00 91 1027.9
20260503035851 -11 98 0.0 0.0 0.00 0.00 0.00 91 1027.9
20260503034338 -11 98 0.0 0.0 0.00 0.00 0.00 90 1027.9
20260503032832 -11 98 0.0 0.0 0.00 0.00 0.00 90 1028.0
20260503025845 -11 98 0.0 0.0 0.00 0.00 0.00 90 1028.1
20260503024335 -10 98 0.0 0.0 0.00 0.00 0.00 90 1028.1
20260503021344 -10 98 0.0 0.0 0.00 0.00 0.00 90 1028.5
20260503015835 -10 98 0.0 0.0 0.00 0.00 0.00 90 1028.3
20260503012843 -10 98 0.0 0.0 0.00 0.00 0.00 90 1028.4
20260503011339 -10 98 0.0 0.0 0.00 0.00 0.00 90 1028.3
20260503004343 -9 98 0.0 0.0 0.00 0.00 0.00 91 1028.4
20260503002834 -9 98 0.0 0.0 0.00 0.00 0.00 91 1028.4
20260502235842 -8 98 0.0 0.0 0.00 0.00 0.00 91 1028.8
20260502234336 -8 98 0.0 0.0 0.00 0.00 0.00 91 1028.9
20260502225843 -7 98 0.0 0.0 0.00 0.00 0.00 91 1029.1
20260502222844 -7 98 0.0 0.0 0.00 0.00 0.00 91 1029.2
20260502221336 -6 98 0.0 0.0 0.00 0.00 0.00 91 1029.2
20260502214348 -5 98 0.0 0.0 0.00 0.00 0.00 92 1029.2
20260502212843 -5 98 0.0 0.0 0.00 0.00 0.00 92 1029.2